When you browse on this site, cookies collect data to enhance your experience and personalize the content and advertising you see.
Visit our Privacy Policy to learn more. By continuing to use the site, you agree to this use of cookies and data.
  • In United Kingdom
  • List of Countries
  • For 7 days
  • Water Temperature
  • Satellite Maps
  • Weather Map
  • Weather Widgets
  • user-avatar
    Login

    Hourly Weather Salawaj

    Today, 26 June, Wednesday

    Time Temperature Precipitation Wind Pressure Humidity
    00:00 +25°C° 0.1 mm 0 mps 740 mmHg 92%
    01:00 +25°C° 0 mm 0 mps 740 mmHg 93%
    02:00 +27°C° 0.3 mm 1 mps 740 mmHg 94%
    03:00 +26°C° 0.3 mm 1 mps 739 mmHg 95%
    04:00 +26°C° 0.3 mm 1 mps 739 mmHg 96%
    05:00 +27°C° 0 mm 1 mps 739 mmHg 94%
    06:00 +25°C° 0 mm 0 mps 740 mmHg 93%
    07:00 +26°C° 0 mm 0 mps 740 mmHg 91%
    08:00 +29°C° 0.3 mm 1 mps 740 mmHg 83%
    09:00 +31°C° 0.3 mm 1 mps 740 mmHg 74%
    10:00 +34°C° 0.3 mm 2 mps 740 mmHg 66%
    11:00 +34°C° 0.1 mm 2 mps 739 mmHg 63%
    12:00 +35°C° 0.1 mm 2 mps 739 mmHg 60%
    13:00 +36°C° 0.1 mm 3 mps 738 mmHg 57%
    14:00 +35°C° 0.9 mm 2 mps 737 mmHg 66%
    15:00 +34°C° 0.9 mm 2 mps 737 mmHg 74%
    16:00 +32°C° 0.9 mm 2 mps 736 mmHg 83%
    17:00 +30°C° 2 mm 2 mps 737 mmHg 86%
    18:00 +29°C° 2 mm 1 mps 737 mmHg 89%
    19:00 +28°C° 2 mm 1 mps 738 mmHg 92%
    20:00 +27°C° 0.4 mm 1 mps 738 mmHg 92%
    21:00 +27°C° 0.4 mm 1 mps 738 mmHg 92%
    22:00 +27°C° 0.4 mm 1 mps 739 mmHg 92%
    23:00 +27°C° 0.2 mm 1 mps 739 mmHg 93%

    Tomorrow, 27 June, Thursday

    Time Temperature Precipitation Wind Pressure Humidity
    00:00 +26°C° 0.2 mm 1 mps 738 mmHg 94%
    01:00 +26°C° 0.2 mm 1 mps 738 mmHg 95%
    02:00 +26°C° 0.3 mm 1 mps 738 mmHg 95%
    03:00 +24°C° 0.3 mm 0 mps 737 mmHg 96%
    04:00 +24°C° 0.3 mm 0 mps 737 mmHg 97%
    05:00 +24°C° 0 mm 0 mps 737 mmHg 95%
    06:00 +25°C° 0 mm 0 mps 738 mmHg 94%
    07:00 +27°C° 0 mm 1 mps 738 mmHg 93%
    08:00 +29°C° 0.2 mm 1 mps 738 mmHg 86%
    09:00 +30°C° 0.2 mm 1 mps 738 mmHg 79%
    10:00 +32°C° 0.2 mm 2 mps 738 mmHg 72%
    11:00 +34°C° 0.2 mm 2 mps 737 mmHg 68%
    12:00 +34°C° 0.2 mm 3 mps 737 mmHg 64%
    13:00 +35°C° 0.2 mm 3 mps 736 mmHg 60%
    14:00 +34°C° 0.4 mm 3 mps 736 mmHg 65%
    15:00 +34°C° 0.4 mm 3 mps 735 mmHg 71%
    16:00 +33°C° 0.4 mm 3 mps 734 mmHg 76%
    17:00 +31°C° 0.2 mm 2 mps 735 mmHg 81%
    18:00 +29°C° 0.2 mm 2 mps 735 mmHg 85%
    19:00 +28°C° 0.2 mm 1 mps 736 mmHg 90%
    20:00 +27°C° 0.2 mm 1 mps 737 mmHg 91%
    21:00 +27°C° 0.2 mm 1 mps 737 mmHg 92%
    22:00 +27°C° 0.2 mm 1 mps 738 mmHg 92%
    23:00 +27°C° 0.2 mm 1 mps 738 mmHg 93%

    Day after tomorrow, 28 June, Friday

    Time Temperature Precipitation Wind Pressure Humidity
    00:00 +26°C° 0.2 mm 1 mps 737 mmHg 93%
    01:00 +26°C° 0.2 mm 1 mps 737 mmHg 94%
    02:00 +26°C° 0.1 mm 1 mps 737 mmHg 94%
    03:00 +26°C° 0.1 mm 1 mps 737 mmHg 95%
    04:00 +24°C° 0.1 mm 0 mps 736 mmHg 95%
    05:00 +26°C° 0.1 mm 1 mps 737 mmHg 93%
    06:00 +27°C° 0.1 mm 1 mps 737 mmHg 92%
    07:00 +27°C° 0.1 mm 1 mps 737 mmHg 90%
    08:00 +28°C° 0.3 mm 2 mps 737 mmHg 86%
    09:00 +30°C° 0.3 mm 2 mps 738 mmHg 81%
    10:00 +31°C° 0.3 mm 3 mps 738 mmHg 76%
    11:00 +30°C° 1 mm 3 mps 737 mmHg 79%
    12:00 +30°C° 1 mm 3 mps 737 mmHg 83%
    13:00 +30°C° 1 mm 3 mps 736 mmHg 86%
    14:00 +30°C° 1.4 mm 3 mps 736 mmHg 87%
    15:00 +30°C° 1.4 mm 2 mps 735 mmHg 89%
    16:00 +29°C° 1.4 mm 2 mps 735 mmHg 90%
    17:00 +28°C° 0.9 mm 2 mps 735 mmHg 92%
    18:00 +27°C° 0.9 mm 2 mps 736 mmHg 94%
    19:00 +26°C° 0.9 mm 1 mps 736 mmHg 96%
    20:00 +26°C° 0.3 mm 1 mps 737 mmHg 95%
    21:00 +26°C° 0.3 mm 1 mps 738 mmHg 95%
    22:00 +26°C° 0.3 mm 1 mps 739 mmHg 95%
    23:00 +26°C° 0.1 mm 1 mps 738 mmHg 95%

    29 June, Saturday

    Time Temperature Precipitation Wind Pressure Humidity
    00:00 +26°C° 0.1 mm 1 mps 738 mmHg 95%
    01:00 +26°C° 0.1 mm 1 mps 738 mmHg 95%
    02:00 +26°C° 0.1 mm 1 mps 738 mmHg 94%
    03:00 +26°C° 0.1 mm 1 mps 738 mmHg 94%
    04:00 +26°C° 0.1 mm 1 mps 737 mmHg 94%
    05:00 +26°C° 0.1 mm 1 mps 738 mmHg 94%
    06:00 +26°C° 0.1 mm 1 mps 738 mmHg 94%
    07:00 +24°C° 0.1 mm 0 mps 738 mmHg 95%
    08:00 +26°C° 0.1 mm 1 mps 738 mmHg 92%
    09:00 +27°C° 0.1 mm 1 mps 738 mmHg 90%
    10:00 +28°C° 0.1 mm 1 mps 738 mmHg 87%
    11:00 +29°C° 0.4 mm 2 mps 738 mmHg 84%
    12:00 +29°C° 0.4 mm 2 mps 737 mmHg 81%
    13:00 +30°C° 0.4 mm 2 mps 737 mmHg 78%
    14:00 +30°C° 1.2 mm 2 mps 736 mmHg 82%
    15:00 +30°C° 1.2 mm 2 mps 736 mmHg 86%
    16:00 +29°C° 1.2 mm 2 mps 736 mmHg 90%
    17:00 +29°C° 1.4 mm 1 mps 736 mmHg 92%
    18:00 +28°C° 1.4 mm 1 mps 737 mmHg 94%
    19:00 +27°C° 1.4 mm 1 mps 737 mmHg 96%
    20:00 +26°C° 1.3 mm 1 mps 738 mmHg 97%
    21:00 +24°C° 1.3 mm 0 mps 738 mmHg 97%
    22:00 +24°C° 1.3 mm 0 mps 739 mmHg 97%
    23:00 +24°C° 0.9 mm 0 mps 739 mmHg 98%

    30 June, Sunday

    Time Temperature Precipitation Wind Pressure Humidity
    00:00 +24°C° 0.9 mm 0 mps 738 mmHg 98%
    01:00 +24°C° 0.9 mm 0 mps 738 mmHg 98%
    02:00 +24°C° 0.6 mm 0 mps 738 mmHg 98%
    03:00 +24°C° 0.6 mm 0 mps 738 mmHg 98%
    04:00 +24°C° 0.6 mm 0 mps 738 mmHg 97%
    05:00 +26°C° 0.2 mm 1 mps 738 mmHg 97%
    06:00 +26°C° 0.2 mm 1 mps 738 mmHg 96%
    07:00 +27°C° 0.2 mm 1 mps 738 mmHg 96%
    08:00 +28°C° 0.6 mm 1 mps 738 mmHg 93%
    09:00 +29°C° 0.6 mm 2 mps 739 mmHg 90%
    10:00 +30°C° 0.6 mm 2 mps 739 mmHg 87%
    11:00 +30°C° 2 mm 2 mps 738 mmHg 88%
    12:00 +30°C° 2 mm 2 mps 738 mmHg 90%
    13:00 +30°C° 2 mm 2 mps 737 mmHg 91%
    14:00 +30°C° 2.1 mm 2 mps 737 mmHg 91%
    15:00 +30°C° 2.1 mm 2 mps 736 mmHg 91%
    16:00 +30°C° 2.1 mm 2 mps 736 mmHg 91%
    17:00 +29°C° 0.6 mm 1 mps 736 mmHg 93%
    18:00 +28°C° 0.6 mm 1 mps 737 mmHg 94%
    19:00 +25°C° 0.6 mm 0 mps 737 mmHg 96%
    20:00 +27°C° 1 mm 1 mps 738 mmHg 96%
    21:00 +27°C° 1 mm 1 mps 738 mmHg 96%
    22:00 +27°C° 1 mm 1 mps 739 mmHg 96%
    23:00 +26°C° 1.6 mm 1 mps 739 mmHg 97%

    1 July, Monday

    Time Temperature Precipitation Wind Pressure Humidity
    00:00 +26°C° 1.6 mm 1 mps 738 mmHg 97%
    01:00 +26°C° 1.6 mm 1 mps 738 mmHg 98%
    02:00 +26°C° 0.2 mm 1 mps 738 mmHg 98%
    03:00 +25°C° 0.2 mm 1 mps 738 mmHg 98%
    04:00 +25°C° 0.2 mm 1 mps 738 mmHg 97%
    05:00 +23°C° 0 mm 0 mps 738 mmHg 97%
    06:00 +24°C° 0 mm 0 mps 738 mmHg 96%
    07:00 +24°C° 0 mm 0 mps 739 mmHg 96%
    08:00 +27°C° 0.4 mm 1 mps 739 mmHg 94%
    09:00 +28°C° 0.4 mm 1 mps 739 mmHg 91%
    10:00 +29°C° 0.4 mm 1 mps 739 mmHg 89%
    11:00 +29°C° 0.8 mm 1 mps 738 mmHg 86%
    12:00 +30°C° 0.8 mm 2 mps 737 mmHg 84%
    13:00 +31°C° 0.8 mm 2 mps 736 mmHg 82%
    14:00 +30°C° 1.6 mm 2 mps 736 mmHg 85%
    15:00 +30°C° 1.6 mm 2 mps 736 mmHg 89%
    16:00 +29°C° 1.6 mm 2 mps 735 mmHg 92%
    17:00 +28°C° 1.5 mm 1 mps 736 mmHg 94%
    18:00 +27°C° 1.5 mm 1 mps 736 mmHg 95%
    19:00 +27°C° 1.5 mm 1 mps 736 mmHg 96%
    20:00 +26°C° 1.4 mm 1 mps 737 mmHg 97%
    21:00 +26°C° 1.4 mm 1 mps 737 mmHg 97%
    22:00 +26°C° 1.4 mm 1 mps 738 mmHg 98%
    23:00 +26°C° 1.5 mm 1 mps 738 mmHg 98%
    Show more